Theta_e
331 334 328 323 315 314 316 317 316 314 313 313 312 311 312 312 313 314 314 316 315 313 312 309 308 306 307 309 310 311 319 334 342 345 346 344 343 343 343 341 343 341 336
333 335 328 320 317 317 318 317 316 315 314 315 314 313 313 313 315 317 316 316 317 316 316 316 312 309 306 308 309 311 311 318 333 341 345 345 344 344 344 339 341 342 336
334 334 328 325 323 324 321 320 320 318 316 316 314 313 313 313 319 316 315 315 320 322 321 320 319 317 310 307 309 311 313 312 318 333 340 344 344 345 344 341 340 342 340
328 330 329 326 326 325 324 323 323 320 319 316 314 314 316 318 316 314 314 315 317 321 323 322 322 321 317 312 309 312 313 313 313 322 335 340 344 344 344 343 343 342 341
325 323 323 325 326 326 326 325 322 321 320 318 316 320 326 327 323 323 320 317 317 323 329 330 333 330 322 320 316 317 313 313 313 318 329 337 342 343 343 344 342 342 342
322 320 324 327 328 328 327 323 321 319 316 314 317 322 323 324 324 323 323 322 324 323 328 327 329 331 329 325 325 314 310 325 317 315 329 337 341 342 342 342 341 343 341
318 320 324 327 328 327 324 322 319 318 317 315 316 319 320 324 324 322 322 323 323 322 326 327 327 326 327 327 324 322 326 327 324 315 328 337 340 342 341 341 343 343 339
319 322 323 325 325 323 320 320 320 319 319 317 321 323 323 323 322 322 322 321 321 323 324 326 325 325 324 326 327 323 326 322 325 320 324 335 339 340 340 341 343 343 337
324 323 322 324 323 322 320 322 321 321 320 319 323 324 324 323 322 322 320 321 321 325 325 326 324 324 324 324 326 326 320 324 321 321 320 332 338 339 340 340 342 343 340
323 322 322 323 322 321 322 322 321 321 319 323 325 324 324 323 324 322 318 317 319 324 328 328 326 322 322 323 325 326 318 320 323 321 319 330 337 339 339 339 341 342 338
322 322 323 322 322 322 322 322 321 319 319 324 325 325 324 324 325 321 318 317 317 321 323 322 322 324 322 322 325 327 319 316 325 322 319 329 337 339 338 339 340 342 336
322 322 322 322 322 322 322 321 319 319 319 323 325 325 325 325 325 322 319 317 317 320 323 325 326 323 322 323 326 327 321 314 318 323 320 328 336 338 339 339 340 341 338
320 322 322 322 322 322 321 320 317 318 322 324 325 324 326 326 324 323 318 318 320 319 320 323 324 323 322 324 325 326 320 310 316 324 322 326 335 337 338 340 340 340 338
321 323 322 323 322 322 322 317 318 322 325 326 326 326 326 325 323 323 320 319 323 323 323 322 322 324 323 324 325 326 318 308 320 325 321 325 334 336 339 340 340 340 338
322 323 323 323 322 322 320 317 318 322 326 328 327 327 326 325 325 323 324 319 320 321 320 321 322 323 323 324 325 316 310 308 325 325 321 326 334 336 338 339 340 340 335
323 323 323 322 322 323 318 316 317 324 328 327 328 326 325 325 325 324 325 323 320 321 320 320 322 322 323 324 321 320 310 318 326 325 322 329 334 337 338 340 339 338 337
323 323 323 323 323 321 317 315 321 325 327 328 328 326 326 325 325 325 324 325 320 322 321 320 323 323 323 323 320 320 315 327 327 325 328 331 333 335 337 338 339 336 335
323 323 323 324 323 318 317 317 322 326 326 325 326 326 326 326 325 324 324 323 321 322 321 321 323 323 323 323 321 320 323 328 326 328 330 329 332 332 335 337 333 336 336
323 323 324 324 322 316 315 319 323 326 325 325 325 326 327 327 326 324 322 322 319 322 321 321 322 323 323 324 323 319 324 327 326 328 329 328 329 331 333 336 335 335 334
323 323 324 324 318 316 316 320 325 326 327 327 328 327 327 327 327 324 322 321 320 323 321 322 322 323 324 324 323 323 325 326 327 328 329 328 329 332 332 334 336 330 330
323 324 324 322 317 316 319 320 325 326 326 327 327 328 328 327 327 324 323 319 321 323 322 321 322 323 324 324 324 324 325 327 327 328 330 329 329 332 334 335 334 331 334
324 325 324 319 318 319 320 324 325 324 326 328 327 328 327 327 325 324 321 320 322 322 322 321 321 322 325 324 324 324 325 326 327 329 328 329 330 331 335 334 333 331 334
325 325 323 318 319 320 323 324 324 325 327 326 327 328 327 325 324 324 322 322 323 321 322 322 322 323 324 324 323 325 326 327 327 329 331 330 332 333 334 334 333 333 331
325 324 320 320 320 321 326 325 325 326 325 327 327 327 326 325 324 322 322 323 322 321 323 322 323 323 324 323 324 324 327 327 328 330 330 330 332 333 333 332 327 332 329
325 323 321 322 323 322 325 327 325 326 325 325 325 325 326 326 324 323 323 322 322 322 322 324 323 325 324 325 325 326 324 326 327 329 330 332 332 331 332 332 331 330 329
325 323 324 323 323 324 327 328 325 327 325 324 325 325 326 326 325 323 323 322 322 322 322 324 324 324 324 325 326 323 324 326 327 329 331 331 331 331 329 330 331 330 329
Wind_Speed
23 19 20 16 12 10 9 7 7 8 9 9 9 9 8 9 8 9 9 8 8 9 9 10 11 13 14 14 15 18 18 18 18 18 17 19 17 15 13 10 12 11 8
18 22 21 16 11 10 9 7 6 8 9 10 10 10 9 10 11 10 12 12 11 11 9 10 12 12 14 15 15 16 19 19 18 19 18 17 19 16 18 14 14 15 13
18 20 19 15 11 7 7 7 8 9 11 12 13 12 11 11 11 12 13 14 13 13 12 10 11 13 14 15 15 16 18 20 19 18 19 19 16 17 18 17 17 18 16
11 13 14 11 10 9 9 9 10 12 13 14 15 15 14 12 12 13 14 15 15 14 14 14 12 12 14 14 15 16 17 19 18 18 19 20 20 18 19 20 19 18 19
11 8 6 9 12 10 10 11 12 13 15 17 17 17 15 14 16 15 15 15 16 16 15 14 14 13 13 14 15 16 16 16 18 18 19 21 19 19 19 21 21 20 21
10 9 8 11 14 13 12 11 12 13 15 17 17 16 18 20 19 18 18 18 18 17 17 17 17 17 17 15 15 18 17 13 17 20 19 20 21 21 18 20 22 21 20
11 12 12 13 13 11 10 10 12 12 12 13 13 15 17 19 20 21 21 20 20 20 19 18 18 19 19 16 17 17 15 15 16 21 20 19 22 21 20 18 22 23 22
10 14 15 15 13 10 10 12 14 15 16 14 13 13 14 18 21 23 24 25 25 22 22 22 20 21 21 20 18 17 17 18 17 20 21 19 22 23 21 20 23 25 24
16 16 16 16 13 12 14 15 16 17 17 16 14 13 15 15 15 17 19 24 26 24 24 24 24 25 23 21 21 19 20 18 19 19 20 20 21 25 25 22 23 26 25
17 17 16 15 15 15 17 16 17 15 17 15 14 15 16 15 16 18 15 17 19 22 24 23 24 25 26 24 23 22 20 19 18 19 21 20 20 24 26 25 25 26 27
20 18 17 17 18 18 16 18 17 17 16 16 15 15 15 15 19 17 15 15 15 14 15 18 19 22 24 24 24 23 21 21 19 20 22 19 20 23 26 28 27 28 30
21 20 22 22 20 17 16 16 17 15 15 16 16 16 16 16 19 18 16 13 15 16 18 17 19 18 22 23 23 22 22 21 21 19 22 19 20 23 24 27 29 30 31
21 24 27 25 22 19 16 15 14 10 10 12 15 15 16 18 19 16 14 12 11 12 16 17 14 17 21 22 23 24 19 21 20 19 21 20 20 22 23 26 30 33 34
27 30 29 26 23 18 14 12 8 6 6 8 10 13 17 19 15 15 13 11 12 12 12 14 14 15 18 20 22 21 19 20 18 19 21 20 19 20 22 25 32 38 36
31 34 31 28 24 16 12 8 7 7 7 8 9 13 16 17 16 15 14 12 13 13 13 13 14 15 18 19 19 17 18 20 18 19 21 20 19 19 22 27 30 33 29
34 36 34 28 21 13 9 7 7 6 6 7 10 13 15 15 15 16 16 13 11 12 12 12 13 15 17 17 16 15 18 19 17 19 21 20 19 19 24 27 26 28 29
35 33 32 26 17 11 8 8 6 6 9 10 11 13 13 14 15 15 15 15 11 12 12 12 13 14 17 17 18 16 20 17 16 20 19 20 19 18 25 28 26 25 28
35 32 28 20 13 9 7 6 6 8 10 12 12 12 12 13 13 14 15 14 12 12 11 11 14 14 17 18 18 17 19 16 17 18 17 19 19 19 25 25 23 27 26
36 30 25 16 11 8 5 5 7 8 10 10 10 11 13 14 14 14 13 13 13 12 11 11 14 14 14 17 18 18 18 16 17 15 16 17 19 19 23 25 23 20 21
33 29 21 13 10 7 6 5 6 8 10 11 12 12 13 15 14 12 12 13 13 12 11 13 16 14 14 14 14 16 15 14 15 15 15 17 18 17 22 25 26 21 22
33 28 18 13 10 7 6 5 6 9 12 13 13 13 11 13 12 10 10 12 12 9 8 11 18 16 15 13 13 14 14 12 14 15 17 17 16 19 25 26 33 28 26
33 23 15 13 10 7 4 3 7 12 14 14 15 9 8 13 10 9 10 10 10 8 9 12 18 17 16 16 15 15 10 9 13 14 17 17 17 21 24 34 30 29 34
29 20 14 13 8 5 3 3 8 11 14 13 9 5 8 9 7 7 11 10 9 8 10 14 16 17 18 16 14 10 8 6 19 12 14 16 18 19 23 31 35 28 33
24 16 14 10 6 4 3 3 8 10 14 9 5 4 6 6 3 7 9 8 9 9 11 14 14 16 16 17 21 13 8 8 7 8 13 15 18 18 15 13 19 31 37
19 15 13 9 4 5 4 2 8 9 10 7 5 5 5 4 4 8 8 9 9 9 11 12 15 15 14 18 20 23 17 4 14 16 11 21 21 15 23 25 37 37 39
17 15 12 7 5 6 3 3 8 8 7 7 7 8 5 3 6 10 11 9 9 9 10 10 13 15 14 14 15 14 14 10 18 21 15 23 22 21 18 17 29 31 34
Wind_Direction
194 190 194 197 201 211 226 244 272 285 286 283 278 274 278 281 282 287 292 283 278 278 273 264 264 250 245 238 235 230 230 231 229 230 232 225 223 224 229 222 198 191 175
181 186 192 196 204 217 224 245 276 284 285 282 278 274 275 279 283 287 292 293 289 280 272 266 259 260 249 247 241 238 233 231 231 231 232 232 225 227 227 207 200 191 166
179 186 190 201 207 234 236 268 293 294 287 282 281 272 265 266 260 276 283 287 285 288 285 268 264 261 254 248 247 243 242 231 229 232 232 230 220 218 219 207 195 193 188
173 192 198 212 217 219 232 255 281 286 283 284 284 276 270 264 260 266 272 277 276 276 280 280 266 258 261 252 249 249 247 241 228 228 229 230 225 226 220 207 198 199 195
189 196 207 210 213 221 239 262 284 292 289 284 283 276 277 271 279 278 279 274 268 266 266 268 270 267 255 260 249 247 246 245 231 225 226 227 225 218 222 212 207 204 203
196 212 207 210 212 225 241 264 287 300 299 291 279 277 272 276 283 285 276 270 263 267 262 262 259 260 266 256 255 250 244 247 234 223 225 224 220 213 215 208 207 203 197
207 211 205 211 222 237 257 273 291 291 298 293 290 281 274 274 279 278 276 270 265 264 264 261 260 256 257 259 254 254 249 235 237 225 224 223 217 211 215 212 206 201 192
219 208 210 216 225 248 268 286 291 289 295 299 295 285 284 287 284 278 270 264 264 261 256 257 256 253 256 255 254 246 239 240 235 227 224 223 217 214 216 213 207 197 192
213 219 218 221 227 238 249 271 279 288 294 294 287 285 295 291 288 290 275 264 260 258 258 256 251 251 252 249 248 247 236 239 233 230 225 225 219 216 217 215 207 201 196
215 225 224 222 226 232 253 272 273 279 289 281 278 288 299 297 302 303 283 272 263 258 257 257 253 247 247 245 242 244 238 234 233 229 224 226 222 217 217 214 212 207 201
217 222 226 226 229 234 255 261 267 281 278 270 275 288 295 300 314 308 293 276 265 257 263 265 253 242 243 240 237 237 237 230 230 228 223 222 221 219 219 213 211 208 197
222 227 230 228 230 237 246 251 274 271 272 268 276 286 287 298 309 299 294 282 267 256 249 257 250 242 233 234 230 233 236 228 228 226 222 220 220 219 219 214 211 210 190
232 227 229 228 227 231 241 266 273 272 274 275 284 291 292 295 297 289 294 284 279 265 256 252 256 241 230 226 226 231 240 226 226 223 220 219 219 217 218 212 207 201 200
229 227 224 222 225 229 250 275 274 298 289 282 289 300 295 289 284 282 289 277 272 266 266 257 248 236 231 227 227 231 235 222 222 218 217 220 218 215 211 208 205 202 204
228 225 222 217 220 230 260 266 270 289 294 304 309 302 293 285 278 276 273 280 272 265 263 259 242 232 226 227 222 226 220 214 218 215 213 217 215 214 212 205 200 213 225
228 225 222 215 215 234 254 270 274 293 299 300 306 302 298 289 281 270 265 269 275 272 270 257 238 230 222 217 218 221 207 210 218 213 209 215 214 212 207 200 202 198 201
228 217 209 206 215 234 254 271 279 301 311 301 298 297 304 299 285 272 256 254 270 270 271 249 228 223 212 210 214 218 208 207 213 205 209 213 211 212 209 200 204 191 196
221 203 203 206 219 237 261 279 308 315 312 304 297 290 305 309 292 268 254 249 260 258 265 245 223 220 209 212 212 215 208 209 204 202 213 212 212 217 213 210 212 193 198
211 204 203 206 224 240 258 274 305 312 318 313 299 292 302 311 300 266 257 246 248 252 254 237 216 218 214 214 213 210 205 213 207 209 215 213 214 224 215 203 193 194 187
204 206 204 211 222 230 239 259 290 300 312 312 305 301 293 303 301 265 247 235 237 244 247 232 209 207 207 204 208 206 213 211 211 216 218 215 218 221 211 199 196 178 177
199 198 198 212 213 215 222 256 291 314 318 316 304 298 287 298 295 265 234 218 232 245 246 214 195 199 198 191 198 202 208 215 211 223 216 214 211 214 206 199 182 177 184
194 190 195 202 204 200 224 266 311 323 324 315 309 298 282 299 294 262 213 214 228 226 213 189 189 193 189 187 202 200 201 193 202 215 202 204 203 208 204 194 180 181 182
189 186 197 196 191 198 215 300 327 332 328 323 321 295 299 303 291 246 197 207 215 205 195 184 185 190 192 195 203 186 158 168 194 200 197 198 205 202 197 182 174 188 178
182 183 189 186 181 200 220 314 339 345 346 353 350 333 323 327 254 174 188 197 190 189 184 184 188 189 196 199 186 184 167 184 165 159 198 206 202 200 187 169 173 193 179
178 182 183 175 174 210 232 323 350 342 349 359 351 331 313 317 216 197 181 175 174 180 174 175 183 192 192 190 194 201 216 188 184 167 157 175 197 194 180 174 186 186 177
175 179 176 170 178 197 203 359 352 346 358 351 341 336 314 285 199 174 163 171 174 177 177 182 188 188 192 194 199 185 212 209 193 173 153 163 171 184 196 196 182 179 171